Regional Weather Roundup
Issued by NWS Austin/San Antonio, TX

Home | Current Version | Previous Version | Text Only | Print | Product List | Glossary On
Versions: 1 2 3 4 5 6 7 8 9 10 11 12 13 14 15 16 17 18 19 20 21 22 23 24 25 26 27 28 29 30 31 32 33 34 35 36 37 38 39 40 41 42 43 44 45 46 47 48 49 50
000
ASUS44 KEWX 242011
RWREWX
SOUTH TEXAS REGIONAL WEATHER ROUNDUP
NATIONAL WEATHER SERVICE AUSTIN/SAN ANTONIO TX
300 PM CDT SAT AUG 24 2019

NOTE: "FAIR" INDICATED FEW OR NO CLOUDS BELOW 12,000 FEET WITH NO
SIGNIFICANT WEATHER AND/OR OBSTRUCTIONS TO VISIBILITY.

* - THESE STATIONS ARE NOT NWS OR FAA STATIONS...AND ARE NOT SUBJECT
    TO NWS AND FAA QUALITY CONTROL.

TXZ171-172-183>190-242100-
TEXAS HILL COUNTRY AND EDWARDS PLATEAU

CITY           SKY/WX    TMP DP  RH WIND       PRES   REMARKS
JUNCTION       MOSUNNY   93  70  46 E12       29.93F HX  99
*LLANO         MOSUNNY   95  66  38 SW3       29.93F HX  98
BURNET         PTSUNNY   86  72  62 NE5       29.94F HX  92
*HORSESHOE BAY CLOUDY    91  68  46 E5        29.90F HX  95
*KERRVILLE     SUNNY     93  68  43 E7        29.93F HX  97
*FREDERICKSBRG PTSUNNY   90  66  45 SE6       29.94F HX  92
*ROCKSPRINGS   SUNNY     90  68  48 CALM      30.00F HX  93
*BOERNE        PTSUNNY   90  68  48 NE9       29.92F HX  93
*CASTROVILLE   SUNNY     95  67  40 E8        29.88F HX  99
HONDO          MOSUNNY   96  69  41 VRB6      29.88F HX 102
*UVALDE        MOSUNNY   96  68  39 E7        29.88F HX 100
DEL RIO        MOSUNNY   99  70  38 E10G20    29.85F HX 106
LAUGHLIN AFB   MOSUNNY   96  70  42 E8        29.86F HX 102
SPOFFORD       MOSUNNY   94  70  44 E9        29.81F HX 100
*EAGLE PASS    MOSUNNY   99  68  36 SE12      29.85F HX 104
CARRIZO SPRGS  MOSUNNY   95  72  46 NE7       29.84F HX 103
$$

TXZ173-191>194-202-209-217>225-228-242100-
CENTRAL AND SOUTH CENTRAL TEXAS

CITY           SKY/WX    TMP DP  RH WIND       PRES   REMARKS
GEORGETOWN     CLOUDY    89  74  60 VRB3      29.91F HX  98
AUSTIN/BERGSTM PTSUNNY   93  72  50 CALM      29.88F HX 101
AUSTIN/MABRY   MOSUNNY   95  67  39 CALM      29.90F HX  99
*AUSTIN/EXEC   SUNNY     91  70  49 CALM      29.89F HX  97
*LAGO VISTA    MOSUNNY   92  71  50 E6        29.92F HX  99
SAN MARCOS     SUNNY     94  71  47 SE9       29.89F HX 101
NEW BRAUNFELS  MOSUNNY   93  71  48 E9        29.88F HX 100
RANDOLPH AFB   DRIZZLE   93  72  49 NE6       29.88F HX 100
SEGUIN         PTSUNNY   93  71  48 NE8       29.91F HX 100
KELLY FIELD    PTSUNNY   95  72  47 E5G16     29.86F HX 102
SAN ANTONIO    PTSUNNY   95  71  45 SE8       29.89F HX 102
STINSON FIELD  SUNNY     98  72  42 VRB7      29.85F HX 107
PLEASANTON     MOSUNNY   96  72  44 E5        29.86F HX 104
*LA GRANGE     MOSUNNY   96  72  45 SE6       29.85F HX 104
*GIDDINGS      MOSUNNY   98  72  42 SE5       29.88F HX 106
*GONZALES      MOSUNNY   96  73  47 S7        29.86F HX 106
$$

TXZ163>164-176>182-195>201-210>213-226-227-235-242100-
SOUTHEAST TEXAS

CITY           SKY/WX    TMP DP  RH WIND       PRES   REMARKS
COLLEGE STN    PTSUNNY   95  70  44 CALM      29.87F HX 101
*BRYAN         MOSUNNY   96  72  45 E8        29.89F HX 105
*CALDWELL      MOSUNNY   93  69  45 SE5       29.88F HX  98
*CROCKETT      CLOUDY    88  73  62 E3        29.92F HX  96
*BRENHAM       CLOUDY    95  70  43 E6        29.87F HX 101
HUNTSVILLE     PTSUNNY   93  70  46 VRB7      29.89F HX  99
CONROE         CLOUDY    89  73  59 E3        29.89F HX  97
HOUSTON BUSH   PTSUNNY   92  71  50 VRB3      29.87F HX  98
HOUSTON HOBBY  PTSUNNY   90  73  57 SE8       29.87F HX  98
*HOUSTON SW AP FAIR      87  76  68 SE8       29.89F HX  97
PEARLAND       FAIR      89  74  60 S6        29.89F HX  98
HOUSTON HOOKS  FAIR      91  72  53 VRB6      29.87F HX  98
ELLINGTON FLD  NOT AVBL
SUGAR LAND     FAIR      93  76  57 E7        29.87F HX 105
*HOUSTON EXEC  PTSUNNY   93  72  49 CALM      29.88F HX 100
*CLEVELAND MUN FAIR      90  77  64 CALM      29.89F HX 103
*WHARTON       MOSUNNY   92  71  50 SE8       29.89F HX  99
*COLUMBUS      FAIR      96  70  43 E6        29.87F HX 102
*EAGLE LAKE    SUNNY     93  75  56 SE3       29.87  HX 104
$$

TXZ214>216-236>238-242100-
THE UPPER TEXAS COAST

CITY           SKY/WX    TMP DP  RH WIND       PRES   REMARKS
*ORANGE        PTSUNNY   86  80  83 S6        29.90F HX 101
PORT ARTHUR    FAIR      87  77  72 S6        29.87F HX  99
GALVESTON      FAIR      87  78  74 S14       29.89F HX 100
ANGLETON       FAIR      87  75  67 SE6       29.89F HX  96
*BAY CITY      MOSUNNY   91  78  66 SE13      29.90S HX 105
PALACIOS       MOSUNNY   89  77  67 SE15      29.89F HX 101
$$

TXZ229>234-239>247-242100-
TEXAS COASTAL BEND AND RIO GRANDE PLAINS

CITY           SKY/WX    TMP DP  RH WIND       PRES   REMARKS
VICTORIA       PTSUNNY   92  75  57 SE20      29.88F HX 103
*BEEVILLE      NOT AVBL
ROCKPORT       SUNNY     84  78  82 E16       29.87F HAZE    HX  95
*PORT ARANSAS  MOSUNNY   87  78  75 E16       29.90F HX  99
*PORT LAVACA   SUNNY     89  80  73 SE14      29.89F HX 105
*INGLESIDE     PTSUNNY   87  82  84 SE13      29.88F HX 105
CORPUS CHRISTI PTSUNNY   92  77  61 E17G26    29.86F HX 105
CORPUS NAS       N/A    N/A N/A N/A MISG      29.87F
*ROBSTOWN      SUNNY     94  76  56 E15G23    29.85F HX 106
ALICE          SUNNY    102  69  34 SE10      29.81F HX 109
KINGSVILLE NAS MOSUNNY   95  71  45 E24G35    29.84F THUNDER HX 102
COTULLA        MOSUNNY   97  68  38 SE20G25   29.84F HX 102
LAREDO         MOSUNNY   92  73  53 N16       29.81F HX 100
$$

TXZ248>255-242100-
DEEP SOUTH TEXAS

CITY           SKY/WX    TMP DP  RH WIND       PRES   REMARKS
BROWNSVILLE    FAIR      96  79  57 S18       29.84F HX 114
PORT ISABEL    FAIR      95  77  55 SE21G29   29.84F HX 109
HARLINGEN      MOSUNNY   98  73  44 SE8G20    29.81F HX 108
*HEBBRONVILLE  LGT RAIN  93  68  43 CALM      29.86S HX  97
MCALLEN        MOSUNNY  101  71  38 S9        29.82F HX 109
*WESLACO       SUNNY     99  70  39 SE6       29.81  HX 107
FALFURRIAS     SUNNY    101  69  34 S6        29.81F HX 107
EDINBURG       PTSUNNY  101  66  31 SE6       29.82F HX 105
*ZAPATA        PTSUNNY  102  65  30 S3        29.81F HX 105
$$

TXZ213>215-236>238-242>244-246-247-251-254-255-242100-
CMAN STATIONS

STATION/POSITION TIME  TEMP    WIND        PRES    WAVE
                       AIR SEA DIR/SP/G            HT/PER
                 (UTC) (F)     (DEG/KT/KT) (MB)    (FT/S)
SABINE PASS      1924   82 87  210/  7/ 11 1014.1
NORTH JETTY/GLS  1924   84 86  180/  8/  9 1011.4
EAGLE POINT      1924   83 86  160/  5/  5 1011.7
MORGANS POINT    1924   85 88  170/  7/  9 1012.4
PORT O`CONNOR    1924   84 88  100/ 14/ 15 1012.3
PORT ARANSAS     2000   84 88   80/ 18/ 20 1012.0
MALAQUITE BEACH  1918   89 88   80/ 13/ 15 1011.8
BAFFIN BAY       1918   86 92   90/ 12/ 16 1011.8
PORT ISABEL      1918   86 83  140/ 15/ 19 1011.8
$$



USA.gov is the U.S. government's official web portal to all federal, state and local government web resources and services.